This demonstration page uses our WeatherBlox Daily Observations layout. Learn more.

Hourly Observations for March 8, 2016

Temp ( °F °C ) Dew Point ( °F °C ) Humidity (%) Winds ( mph kmh ) Pressure ( in mb ) Visibility ( mi km ) Precip ( " mm )
12:15 am 00:15 Partly Cloudy 50 10 39 4 67 67 Calm 30.15 1021 10 16.09344 0 0
12:35 am 00:35 Mostly Cloudy 50 10 39 4 67 67 Calm 30.18 1022 10 16.09344 0 0
12:55 am 00:55 Cloudy 50 10 39 4 67 67 Calm 30.18 1022 10 16.09344 0 0
1:15 am 01:15 Cloudy 50 10 41 5 71 71 E 3 6 30.18 1022 10 16.09344 0 0
1:35 am 01:35 Cloudy 48 9 43 6 82 82 Calm 30.18 1022 10 16.09344 0 0
1:55 am 01:55 Cloudy 48 9 41 5 76 76 Calm 30.18 1022 10 16.09344 0 0
2:15 am 02:15 Cloudy 48 9 41 5 76 76 Calm 30.18 1022 10 16.09344 0 0
2:35 am 02:35 Mostly Cloudy 48 9 41 5 76 76 NW 3 6 30.18 1022 10 16.09344 0 0
2:55 am 02:55 Cloudy 50 10 41 5 71 71 NNW 3 6 30.18 1022 10 16.09344 0 0
3:15 am 03:15 Cloudy 52 11 41 5 67 67 NW 5 7 30.15 1021 10 16.09344 0 0
3:35 am 03:35 Cloudy 50 10 41 5 71 71 Calm 30.18 1022 10 16.09344 0 0
3:55 am 03:55 Mostly Cloudy 50 10 41 5 71 71 Calm 30.18 1022 10 16.09344 0 0
4:15 am 04:15 Mostly Cloudy 50 10 41 5 71 71 Calm 30.18 1022 10 16.09344 0 0
4:35 am 04:35 Mostly Cloudy 46 8 43 6 87 87 Calm 30.18 1022 10 16.09344 0 0
4:55 am 04:55 Partly Cloudy 45 7 41 5 87 87 Calm 30.18 1022 10 16.09344 0 0
5:15 am 05:15 Partly Cloudy 45 7 41 5 87 87 Calm 30.18 1022 10 16.09344 0 0
5:35 am 05:35 Mostly Cloudy 46 8 41 5 82 82 Calm 30.18 1022 10 16.09344 0 0
5:55 am 05:55 Mostly Cloudy 45 7 41 5 87 87 Calm 30.18 1022 10 16.09344 0 0
6:15 am 06:15 Mostly Cloudy 46 8 41 5 82 82 Calm 30.21 1023 10 16.09344 0 0
6:35 am 06:35 Partly Cloudy 46 8 41 5 82 82 Calm 30.21 1023 10 16.09344 0 0
6:55 am 06:55 Sunny 46 8 41 5 82 82 SSW 3 6 30.21 1023 10 16.09344 0 0
7:15 am 07:15 Sunny 46 8 41 5 82 82 SW 3 6 30.21 1023 10 16.09344 0 0
7:35 am 07:35 Sunny 50 10 43 6 76 76 S 3 6 30.21 1023 10 16.09344 0 0
7:55 am 07:55 Sunny 50 10 43 6 76 76 S 5 7 30.24 1024 10 16.09344 0 0
8:15 am 08:15 Sunny 52 11 45 7 77 77 S 3 6 30.24 1024 10 16.09344 0 0
8:35 am 08:35 Sunny 54 12 43 6 67 67 S 3 6 30.21 1023 10 16.09344 0 0
8:55 am 08:55 Sunny 54 12 43 6 67 67 Calm 30.21 1023 10 16.09344 0 0
9:15 am 09:15 Sunny 55 13 43 6 63 63 SSW 7 11 30.21 1023 10 16.09344 0 0
9:35 am 09:35 Sunny 59 15 43 6 55 55 Calm 30.21 1023 10 16.09344 0 0
9:55 am 09:55 Sunny 61 16 45 7 55 55 Calm 30.21 1023 10 16.09344 0 0
10:15 am 10:15 Sunny 63 17 45 7 52 52 Calm 30.21 1023 10 16.09344 0 0
10:35 am 10:35 Sunny 64 18 43 6 46 46 Calm 30.21 1023 10 16.09344 0 0
10:55 am 10:55 Sunny 70 21 43 6 38 38 SSE 3 6 30.21 1023 10 16.09344 0 0
11:15 am 11:15 Sunny 73 23 41 5 31 31 WNW 10 17 30.21 1023 10 16.09344 0 0
11:35 am 11:35 Sunny 73 23 43 6 33 33 WNW 12 19 30.18 1022 10 16.09344 0 0
11:55 am 11:55 Sunny 73 23 41 5 31 31 NW 8 13 30.18 1022 10 16.09344 0 0
12:15 pm 12:15 Sunny 75 24 43 6 31 31 WNW 6 9 30.15 1021 10 16.09344 0 0
12:35 pm 12:35 Sunny 75 24 43 6 31 31 WNW 8 13 30.15 1021 10 16.09344 0 0
12:55 pm 12:55 Sunny 77 25 43 6 30 30 WNW 9 15 30.15 1021 10 16.09344 0 0
1:15 pm 13:15 Sunny 77 25 43 6 30 30 W 15 24 30.15 1021 10 16.09344 0 0
1:35 pm 13:35 Sunny 77 25 45 7 32 32 WNW 10 17 30.12 1020 10 16.09344 0 0
1:55 pm 13:55 Sunny 79 26 43 6 28 28 W 6 9 30.12 1020 10 16.09344 0 0
2:15 pm 14:15 Sunny 79 26 45 7 30 30 NW 9 15 30.12 1020 10 16.09344 0 0
2:35 pm 14:35 Sunny 79 26 45 7 30 30 WNW 10 17 30.12 1020 10 16.09344 0 0
2:55 pm 14:55 Sunny 79 26 45 7 30 30 W 8 13 30.12 1020 10 16.09344 0 0
3:15 pm 15:15 Sunny 79 26 45 7 30 30 WNW 7 11 30.12 1020 10 16.09344 0 0
3:35 pm 15:35 Sunny 79 26 43 6 28 28 W 5 7 30.09 1019 10 16.09344 0 0
3:55 pm 15:55 Sunny 79 26 45 7 30 30 WNW 8 13 30.09 1019 10 16.09344 0 0
4:15 pm 16:15 Sunny 79 26 43 6 28 28 NW 5 7 30.09 1019 10 16.09344 0 0
4:35 pm 16:35 Sunny 79 26 46 8 32 32 W 7 11 30.09 1019 10 16.09344 0 0
4:55 pm 16:55 Sunny 79 26 45 7 30 30 WSW 7 11 30.09 1019 10 16.09344 0 0
5:15 pm 17:15 Sunny 79 26 43 6 28 28 WSW 5 7 30.09 1019 10 16.09344 0 0
5:35 pm 17:35 Sunny 77 25 45 7 32 32 SSW 9 15 30.09 1019 10 16.09344 0 0
5:55 pm 17:55 Sunny 73 23 43 6 33 33 S 9 15 30.09 1019 10 16.09344 0 0
6:15 pm 18:15 Clear 72 22 43 6 36 36 S 7 11 30.09 1019 10 16.09344 0 0
6:35 pm 18:35 Clear 72 22 41 5 33 33 S 7 11 30.12 1020 10 16.09344 0 0
6:55 pm 18:55 Clear 70 21 41 5 35 35 S 6 9 30.12 1020 10 16.09344 0 0
7:15 pm 19:15 Clear 70 21 41 5 35 35 S 7 11 30.12 1020 10 16.09344 0 0
7:35 pm 19:35 Clear 66 19 41 5 40 40 SSW 5 7 30.12 1020 10 16.09344 0 0
7:55 pm 19:55 Clear 61 16 43 6 52 52 SSW 3 6 30.12 1020 10 16.09344 0 0
8:15 pm 20:15 Clear 63 17 43 6 49 49 S 5 7 30.12 1020 10 16.09344 0 0
8:35 pm 20:35 Clear 61 16 41 5 48 48 SSW 3 6 30.12 1020 10 16.09344 0 0
8:55 pm 20:55 Clear 59 15 43 6 55 55 SSW 3 6 30.12 1020 10 16.09344 0 0
9:15 pm 21:15 Clear 59 15 43 6 55 55 SSE 5 7 30.12 1020 10 16.09344 0 0
9:35 pm 21:35 Clear 59 15 43 6 55 55 S 6 9 30.12 1020 10 16.09344 0 0
9:55 pm 21:55 Clear 55 13 43 6 63 63 S 6 9 30.12 1020 10 16.09344 0 0
10:15 pm 22:15 Clear 54 12 45 7 72 72 SSE 5 7 30.09 1019 10 16.09344 0 0
10:35 pm 22:35 Clear 54 12 43 6 67 67 S 3 6 30.09 1019 10 16.09344 0 0
10:55 pm 22:55 Clear 54 12 45 7 72 72 S 5 7 30.09 1019 10 16.09344 0 0
11:15 pm 23:15 Clear 54 12 45 7 72 72 S 5 7 30.09 1019 10 16.09344 0 0
11:35 pm 23:35 Clear 52 11 45 7 77 77 SSW 3 6 30.12 1020 10 16.09344 0 0
11:55 pm 23:55 Clear 54 12 43 6 67 67 S 5 7 30.12 1020 10 16.09344 0 0

Powered by AerisWeather